TimeCST,TemperatureF,Dew PointF,Humidity,Sea Level PressureIn,VisibilityMPH,Wind Direction,Wind SpeedMPH,Gust SpeedMPH,PrecipitationIn,Events,Conditions,WindDirDegrees,DateUTC
12:53 AM,19.0,3.0,50,30.39,10.0,ESE,12.7,-,N/A,,Overcast,110,2013-12-08 06:53:00
1:53 AM,19.0,3.0,50,30.35,10.0,East,11.5,-,0.00,Snow,Light Snow,100,2013-12-08 07:53:00
2:53 AM,18.0,6.1,60,30.32,5.0,East,11.5,-,0.01,Snow,Light Snow,90,2013-12-08 08:53:00
3:53 AM,18.0,6.1,60,30.29,7.0,East,10.4,-,0.00,Snow,Light Snow,90,2013-12-08 09:53:00
4:53 AM,18.0,7.0,62,30.25,9.0,East,13.8,-,0.00,Snow,Light Snow,90,2013-12-08 10:53:00
5:53 AM,18.0,9.0,68,30.22,9.0,ESE,12.7,-,0.00,Snow,Light Snow,110,2013-12-08 11:53:00
6:53 AM,18.0,10.0,71,30.19,10.0,ESE,15.0,-,0.00,Snow,Light Snow,110,2013-12-08 12:53:00
7:53 AM,17.1,10.9,77,30.18,5.0,ESE,11.5,-,0.00,Snow,Light Snow,110,2013-12-08 13:53:00
8:22 AM,17.6,12.2,79,30.13,2.5,ESE,11.5,-,0.01,Snow,Light Snow,120,2013-12-08 14:22:00
8:45 AM,17.6,12.2,79,30.13,1.5,SE,10.4,-,0.02,Snow,Light Snow,130,2013-12-08 14:45:00
8:53 AM,18.0,12.9,81,30.17,0.8,ESE,10.4,-,0.03,Snow,Light Snow,120,2013-12-08 14:53:00
9:02 AM,17.6,12.2,79,30.13,1.5,ESE,10.4,-,0.00,Snow,Light Snow,120,2013-12-08 15:02:00
9:53 AM,19.0,12.9,77,30.16,1.5,ESE,9.2,-,0.01,Snow,Light Snow,120,2013-12-08 15:53:00
10:19 AM,19.4,14.0,80,30.11,2.5,ESE,8.1,-,0.00,Snow,Light Snow,120,2013-12-08 16:19:00
10:53 AM,19.9,15.1,81,30.14,2.5,ESE,6.9,-,0.01,Snow,Light Snow,120,2013-12-08 16:53:00
11:18 AM,19.4,15.8,86,30.07,2.5,SE,8.1,-,0.00,Snow,Light Freezing Drizzle,130,2013-12-08 17:18:00
11:53 AM,19.9,15.1,81,30.09,2.5,SE,6.9,-,0.00,Snow,Light Freezing Drizzle,140,2013-12-08 17:53:00
12:53 PM,21.0,17.1,85,30.06,2.5,SSE,5.8,-,0.00,Snow,Light Snow,160,2013-12-08 18:53:00
1:53 PM,21.0,17.1,85,30.03,2.5,SSW,3.5,-,0.00,,Overcast,200,2013-12-08 19:53:00
2:30 PM,21.2,17.6,86,29.98,3.0,Calm,Calm,-,N/A,,Overcast,0,2013-12-08 20:30:00
2:53 PM,21.9,17.1,82,30.01,3.0,Calm,Calm,-,N/A,,Overcast,0,2013-12-08 20:53:00
3:53 PM,21.9,17.1,82,30.02,3.0,Calm,Calm,-,N/A,,Overcast,0,2013-12-08 21:53:00
4:29 PM,21.2,17.6,86,29.99,1.5,Calm,Calm,-,0.00,Snow,Light Snow,0,2013-12-08 22:29:00
4:53 PM,21.9,18.0,85,30.04,1.5,Calm,Calm,-,0.00,,Overcast,0,2013-12-08 22:53:00
5:18 PM,21.2,19.4,93,30.02,1.5,West,3.5,-,N/A,,Overcast,260,2013-12-08 23:18:00
5:53 PM,21.9,19.0,89,30.08,1.5,West,5.8,-,0.00,Snow,Light Snow,270,2013-12-08 23:53:00
6:53 PM,21.9,18.0,85,30.10,1.5,West,4.6,-,0.01,Snow,Light Snow,270,2013-12-09 00:53:00
7:16 PM,21.2,17.6,86,30.06,3.0,West,3.5,-,0.00,Snow,Light Snow,280,2013-12-09 01:16:00
7:53 PM,21.0,18.0,88,30.11,3.0,WNW,4.6,-,0.00,,Overcast,290,2013-12-09 01:53:00
8:53 PM,21.0,18.0,88,30.12,3.0,Calm,Calm,-,0.00,Snow,Light Snow,0,2013-12-09 02:53:00
9:12 PM,19.4,15.8,86,30.09,3.0,Calm,Calm,-,0.00,Snow,Light Snow,0,2013-12-09 03:12:00
9:53 PM,18.0,15.1,88,30.14,7.0,WNW,4.6,-,0.00,,Partly Cloudy,300,2013-12-09 03:53:00
10:02 PM,17.6,14.0,86,30.10,6.0,WNW,5.8,-,N/A,,Partly Cloudy,300,2013-12-09 04:02:00
10:20 PM,19.4,15.8,86,30.11,6.0,NW,8.1,-,N/A,,Mostly Cloudy,320,2013-12-09 04:20:00
10:31 PM,19.4,15.8,86,30.12,6.0,NW,9.2,-,N/A,,Overcast,320,2013-12-09 04:31:00
10:53 PM,18.0,12.9,81,30.18,7.0,NW,8.1,-,N/A,,Overcast,310,2013-12-09 04:53:00
11:36 PM,15.8,10.4,79,30.16,9.0,WNW,5.8,-,N/A,,Overcast,290,2013-12-09 05:36:00
11:53 PM,16.0,10.9,81,30.21,9.0,WNW,6.9,-,N/A,,Scattered Clouds,300,2013-12-09 05:53:00